This is the latest recevied weather packets stored in our database for station/object JS2WAD-13. If no packets are shown the sender has not sent any weather packets the latest 10 day(s).
| Time | Temp. | Humidity | Pressure | Rain* | Wind** | Luminosity | Snow |
|---|---|---|---|---|---|---|---|
| 1777701394 | 24.44° C | 34% | 901.4 hPa | 0 mm | - | 399 W/m² | - |
| 1777701093 | 24.44° C | 33% | 901.4 hPa | 0 mm | - | 311 W/m² | - |
| 1777700794 | 25° C | 35% | 901.5 hPa | 0 mm | - | 206 W/m² | - |
| 1777700494 | 24.44° C | 34% | 901.5 hPa | 0 mm | - | 462 W/m² | - |
| 1777700194 | 25° C | 33% | 901.5 hPa | 0 mm | - | 301 W/m² | - |
| 1777699894 | 25° C | 35% | 901.5 hPa | 0 mm | - | 260 W/m² | - |
| 1777699594 | 25° C | 36% | 901.7 hPa | 0 mm | - | 265 W/m² | - |
| 1777699294 | 25° C | 35% | 901.7 hPa | 0 mm | - | 255 W/m² | - |
| 1777698994 | 25° C | 35% | 901.7 hPa | 0 mm | - | 325 W/m² | - |
| 1777698694 | 25° C | 37% | 901.7 hPa | 0 mm | - | 548 W/m² | - |
| 1777698394 | 25° C | 36% | 901.7 hPa | 0 mm | - | 589 W/m² | - |
| 1777698094 | 25° C | 34% | 901.7 hPa | 0 mm | - | 244 W/m² | - |
| 1777697794 | 25° C | 36% | 901.7 hPa | 0 mm | - | 747 W/m² | - |
| 1777697494 | 25° C | 35% | 901.6 hPa | 0 mm | - | 856 W/m² | - |
| 1777697194 | 25° C | 35% | 901.5 hPa | 0 mm | - | 874 W/m² | - |
| 1777696894 | 24.44° C | 35% | 901.5 hPa | 0 mm | - | 877 W/m² | - |
| 1777696594 | 24.44° C | 36% | 901.6 hPa | 0 mm | - | 854 W/m² | - |
| 1777696294 | 24.44° C | 34% | 901.6 hPa | 0 mm | - | 858 W/m² | - |
| 1777695994 | 24.44° C | 36% | 901.6 hPa | 0 mm | - | 842 W/m² | - |
| 1777695694 | 24.44° C | 37% | 901.6 hPa | 0 mm | - | 359 W/m² | - |
| 1777695394 | 24.44° C | 36% | 901.5 hPa | 0 mm | - | 120 W/m² | - |
| 1777695094 | 24.44° C | 36% | 901.7 hPa | 0 mm | - | 118 W/m² | - |
| 1777694794 | 23.89° C | 37% | 901.6 hPa | 0 mm | - | 784 W/m² | - |
| 1777694494 | 23.89° C | 37% | 901.7 hPa | 0 mm | - | 886 W/m² | - |
| 1777694194 | 23.89° C | 44% | 901.6 hPa | 0 mm | - | 891 W/m² | - |
* Rain latest hour (hover to see other rain measurements)
** Current wind speed in m/s (hover to see current wind gust speed)